sat.trackr.live / text

‹ back to catalog

STARLINK-31491

NORAD 59011 · 2024-036P

PAYLOAD ACTIVE UNKNOWN

§ Identity

Operator
Country
US
Launch date
2024-02-23
Launch site
AFWTR
Launch vehicle
Mass (kg)
RCS (m²)

Purposes: comms

External: N2YO · Heavens-Above · Gunter

§ Orbital elements

Epoch: 2026-09-20T16:03:01.435968Z

Period
93.85 min
Inclination
53.1581°
Eccentricity
0.0001720
Mean motion
15.34389240 rev/d
Perigee alt
461.6 km
Apogee alt
463.9 km
Semi-major
6,840.9 km
B*
1.8823e-6
RAAN
251.1766°
Arg perigee
99.3243°
Mean anomaly
260.7954°
Rev number
14,519

§ Raw data

STARLINK-314911 59011U 24036P   26263.66876662 -.00000313  00000+0  18823-5 0  99912 59011  53.1581 251.1766 0001720  99.3243 260.7954 15.34389240145191

JSON: /api/v1/satellites/59011 · /tle

For live sub-satellite position, see the globe view (requires WebGL).

§ Visibility from observer

Set your observer location to see the next 7 days of passes ≥ 10°. The values pass through the URL so the page stays shareable.

No JS? Fill the form by hand. The geolocation button needs JavaScript.